| time (UTC) | temp F | wind direction | speed MPH | gust MPH | rain 1hr in | rain 24hr in | rain mn in | humidity % | barometer mb |
| 20260831122027 | 57 | 108 | 8.0 | 16.0 | 0.00 | 0.00 | 0.00 | 1013.5 | |
| 20260831121551 | 57 | 105 | 7.0 | 18.0 | 0.00 | 0.00 | 0.00 | 1013.5 | |
| 20260831121032 | 57 | 99 | 6.0 | 20.0 | 0.00 | 0.00 | 0.00 | 1013.6 | |
| 20260831120527 | 57 | 76 | 8.0 | 20.0 | 0.00 | 0.00 | 0.00 | 1013.5 | |
| 20260831120055 | 57 | 109 | 6.0 | 17.0 | 0.00 | 0.00 | 0.00 | 1013.5 | |
| 20260831115529 | 57 | 3 | 7.0 | 15.0 | 0.00 | 0.00 | 0.00 | 1013.5 | |
| 20260831115028 | 57 | 299 | 6.0 | 15.0 | 0.00 | 0.00 | 0.00 | 1013.7 | |
| 20260831114559 | 56 | 111 | 3.0 | 12.0 | 0.00 | 0.00 | 0.00 | 1013.6 | |
| 20260831114025 | 56 | 106 | 4.0 | 12.0 | 0.00 | 0.00 | 0.00 | 1013.8 | |
| 20260831113525 | 57 | 111 | 8.0 | 13.0 | 0.00 | 0.00 | 0.00 | 1013.7 | |
| 20260831113051 | 57 | 105 | 7.0 | 13.0 | 0.00 | 0.00 | 0.00 | 1013.7 | |
| 20260831112527 | 57 | 103 | 6.0 | 12.0 | 0.00 | 0.00 | 0.00 | 1013.8 | |
| 20260831112029 | 57 | 112 | 7.0 | 12.0 | 0.00 | 0.00 | 0.00 | 1013.8 | |
| 20260831111545 | 57 | 76 | 5.0 | 12.0 | 0.00 | 0.00 | 0.00 | 1013.9 | |
| 20260831111032 | 57 | 101 | 7.0 | 12.0 | 0.00 | 0.00 | 0.00 | 1014.0 | |
| 20260831110531 | 57 | 11 | 7.0 | 12.0 | 0.00 | 0.00 | 0.00 | 1014.0 | |
| 20260831110047 | 57 | 108 | 6.0 | 13.0 | 0.00 | 0.00 | 0.00 | 1014.2 | |
| 20260831105530 | 57 | 68 | 5.0 | 13.0 | 0.00 | 0.00 | 0.00 | 1013.9 | |
| 20260831105026 | 57 | 78 | 7.0 | 12.0 | 0.00 | 0.00 | 0.00 | 1014.0 | |
| 20260831104555 | 57 | 140 | 6.0 | 14.0 | 0.00 | 0.00 | 0.00 | 1014.0 | |
| 20260831104025 | 57 | 99 | 7.0 | 14.0 | 0.00 | 0.00 | 0.00 | 1014.0 | |
| 20260831103525 | 57 | 111 | 5.0 | 13.0 | 0.00 | 0.00 | 0.00 | 1014.1 | |
| 20260831103054 | 57 | 110 | 6.0 | 11.0 | 0.00 | 0.00 | 0.00 | 1014.0 | |
| 20260831102529 | 57 | 106 | 7.0 | 11.0 | 0.00 | 0.00 | 0.00 | 1014.2 | |
| 20260831102028 | 57 | 116 | 5.0 | 12.0 | 0.00 | 0.00 | 0.00 | 1014.1 | |
| 20260831101558 | 58 | 123 | 4.0 | 12.0 | 0.00 | 0.00 | 0.00 | 1014.2 | |
| 20260831101028 | 58 | 136 | 7.0 | 12.0 | 0.00 | 0.00 | 0.00 | 1014.2 | |
| 20260831100524 | 58 | 109 | 4.0 | 9.0 | 0.00 | 0.00 | 0.00 | 1014.2 | |
| 20260831095524 | 58 | 10 | 3.0 | 9.0 | 0.00 | 0.00 | 0.00 | 1014.4 | |
| 20260831095031 | 58 | 112 | 4.0 | 9.0 | 0.00 | 0.00 | 0.00 | 1014.4 | |
| 20260831094610 | 58 | 117 | 4.0 | 9.0 | 0.00 | 0.00 | 0.00 | 1014.4 | |
| 20260831094029 | 58 | 116 | 4.0 | 11.0 | 0.00 | 0.00 | 0.00 | 1014.4 | |
| 20260831093523 | 58 | 111 | 5.0 | 11.0 | 0.00 | 0.00 | 0.00 | 1014.4 | |
| 20260831093055 | 58 | 71 | 5.0 | 11.0 | 0.00 | 0.00 | 0.00 | 1014.6 | |
| 20260831092529 | 59 | 31 | 4.0 | 12.0 | 0.00 | 0.00 | 0.00 | 1014.6 | |
| 20260831092027 | 59 | 132 | 6.0 | 12.0 | 0.00 | 0.00 | 0.00 | 1014.7 | |
| 20260831091548 | 59 | 115 | 6.0 | 14.0 | 0.00 | 0.00 | 0.00 | 1014.7 | |
| 20260831091024 | 59 | 122 | 7.0 | 14.0 | 0.00 | 0.00 | 0.00 | 1014.8 | |
| 20260831090527 | 59 | 74 | 7.0 | 13.0 | 0.00 | 0.00 | 0.00 | 1014.8 | |
| 20260831090053 | 59 | 111 | 9.0 | 14.0 | 0.00 | 0.00 | 0.00 | 1014.9 | |
| 20260831085528 | 59 | 109 | 9.0 | 14.0 | 0.00 | 0.00 | 0.00 | 1015.0 | |
| 20260831085028 | 59 | 105 | 9.0 | 13.0 | 0.00 | 0.00 | 0.00 | 1015.1 | |
| 20260831084549 | 59 | 113 | 8.0 | 13.0 | 0.00 | 0.00 | 0.00 | 1015.0 | |
| 20260831084028 | 60 | 112 | 6.0 | 13.0 | 0.00 | 0.00 | 0.00 | 1015.1 | |
| 20260831083525 | 59 | 130 | 10.0 | 13.0 | 0.00 | 0.00 | 0.00 | 1015.0 | |
| 20260831083046 | 59 | 120 | 9.0 | 13.0 | 0.00 | 0.00 | 0.00 | 1015.1 | |
| 20260831082530 | 59 | 114 | 11.0 | 13.0 | 0.00 | 0.00 | 0.00 | 1015.1 | |
| 20260831082024 | 59 | 118 | 11.0 | 13.0 | 0.00 | 0.00 | 0.00 | 1015.1 | |
| 20260831081551 | 59 | 134 | 9.0 | 13.0 | 0.00 | 0.00 | 0.00 | 1015.3 | |
| 20260831081025 | 59 | 116 | 10.0 | 12.0 | 0.00 | 0.00 | 0.00 | 1015.2 | |
| 20260831080528 | 59 | 111 | 9.0 | 12.0 | 0.00 | 0.00 | 0.00 | 1015.4 | |
| 20260831080050 | 60 | 113 | 5.0 | 11.0 | 0.00 | 0.00 | 0.00 | 1015.4 | |
| 20260831075529 | 60 | 112 | 9.0 | 11.0 | 0.00 | 0.00 | 0.00 | 1015.5 | |
| 20260831075031 | 60 | 109 | 7.0 | 11.0 | 0.00 | 0.00 | 0.00 | 1015.6 | |
| 20260831074557 | 59 | 106 | 3.0 | 5.0 | 0.00 | 0.00 | 0.00 | 1015.6 | |
| 20260831074029 | 59 | 141 | 1.0 | 3.0 | 0.00 | 0.00 | 0.00 | 1015.5 | |
| 20260831073526 | 58 | 166 | 1.0 | 3.0 | 0.00 | 0.00 | 0.00 | 1015.7 | |
| 20260831073051 | 59 | 183 | 1.0 | 3.0 | 0.00 | 0.00 | 0.00 | 1015.6 | |
| 20260831072526 | 58 | 151 | 1.0 | 3.0 | 0.00 | 0.00 | 0.00 | 1015.7 | |
| 20260831072026 | 58 | 288 | 1.0 | 3.0 | 0.00 | 0.00 | 0.00 | 1015.8 | |
| 20260831071607 | 58 | 216 | 1.0 | 3.0 | 0.00 | 0.00 | 0.00 | 1015.8 | |
| 20260831071026 | 58 | 207 | 1.0 | 4.0 | 0.00 | 0.00 | 0.00 | 1015.7 | |
| 20260831070528 | 59 | 192 | 1.0 | 4.0 | 0.00 | 0.00 | 0.00 | 1015.9 | |
| 20260831070047 | 59 | 227 | 1.0 | 3.0 | 0.00 | 0.00 | 0.00 | 1015.8 | |
| 20260831065530 | 59 | 216 | 1.0 | 3.0 | 0.00 | 0.00 | 0.00 | 1015.9 | |
| 20260831065032 | 59 | 90 | 1.0 | 3.0 | 0.00 | 0.00 | 0.00 | 1016.0 | |
| 20260831064605 | 59 | 120 | 1.0 | 3.0 | 0.00 | 0.00 | 0.00 | 1016.0 | |
| 20260831064031 | 59 | 183 | 1.0 | 4.0 | 0.00 | 0.00 | 0.00 | 1016.0 | |
| 20260831063527 | 59 | 216 | 1.0 | 5.0 | 0.00 | 0.00 | 0.00 | 1016.1 | |
| 20260831063052 | 59 | 232 | 2.0 | 5.0 | 0.00 | 0.00 | 0.00 | 1016.0 | |
| 20260831062531 | 59 | 268 | 2.0 | 5.0 | 0.00 | 0.00 | 0.00 | 1016.1 | |
| 20260831062025 | 60 | 243 | 2.0 | 5.0 | 0.00 | 0.00 | 0.00 | 1015.9 | |
| 20260831061551 | 62 | 283 | 3.0 | 5.0 | 0.00 | 0.00 | 0.00 | 1016.2 | |
| 20260831061025 | 61 | 277 | 3.0 | 6.0 | 0.00 | 0.00 | 0.00 | 1016.3 | |
| 20260831060528 | 62 | 275 | 2.0 | 6.0 | 0.00 | 0.00 | 0.00 | 1016.3 | |
| 20260831060104 | 61 | 290 | 1.0 | 6.0 | 0.00 | 0.00 | 0.00 | 1016.3 | |
| 20260831055535 | 62 | 306 | 2.0 | 6.0 | 0.00 | 0.00 | 0.00 | 1016.4 | |
| 20260831055027 | 62 | 279 | 3.0 | 6.0 | 0.00 | 0.00 | 0.00 | 1016.3 | |
| 20260831054547 | 62 | 355 | 2.0 | 5.0 | 0.00 | 0.00 | 0.00 | 1016.4 | |
| 20260831054030 | 62 | 317 | 1.0 | 7.0 | 0.00 | 0.00 | 0.00 | 1016.4 | |
| 20260831053527 | 62 | 0 | 2.0 | 7.0 | 0.00 | 0.00 | 0.00 | 1016.4 | |
| 20260831053051 | 63 | 356 | 2.0 | 6.0 | 0.00 | 0.00 | 0.00 | 1016.3 | |
| 20260831052525 | 63 | 149 | 2.0 | 9.0 | 0.00 | 0.00 | 0.00 | 1016.6 | |
| 20260831052027 | 63 | 302 | 4.0 | 9.0 | 0.00 | 0.00 | 0.00 | 1016.5 | |
| 20260831051557 | 63 | 278 | 3.0 | 8.0 | 0.00 | 0.00 | 0.00 | 1016.6 | |
| 20260831051027 | 63 | 285 | 2.0 | 8.0 | 0.00 | 0.00 | 0.00 | 1016.6 | |
| 20260831050528 | 63 | 303 | 3.0 | 7.0 | 0.00 | 0.00 | 0.00 | 1016.8 | |
| 20260831050058 | 64 | 311 | 2.0 | 7.0 | 0.00 | 0.00 | 0.00 | 1016.9 | |
| 20260831045527 | 64 | 284 | 2.0 | 8.0 | 0.00 | 0.00 | 0.00 | 1016.7 | |
| 20260831045028 | 64 | 247 | 1.0 | 10.0 | 0.00 | 0.00 | 0.00 | 1016.8 | |
| 20260831044550 | 64 | 306 | 2.0 | 11.0 | 0.00 | 0.00 | 0.00 | 1016.8 | |
| 20260831044029 | 64 | 311 | 4.0 | 11.0 | 0.00 | 0.00 | 0.00 | 1016.9 | |
| 20260831043527 | 64 | 268 | 1.0 | 8.0 | 0.00 | 0.00 | 0.00 | 1017.0 | |
| 20260831043053 | 64 | 302 | 2.0 | 8.0 | 0.00 | 0.00 | 0.00 | 1017.0 | |
| 20260831042528 | 65 | 141 | 1.0 | 10.0 | 0.00 | 0.00 | 0.00 | 1017.0 | |
| 20260831042027 | 64 | 333 | 4.0 | 11.0 | 0.00 | 0.00 | 0.00 | 1017.0 | |
| 20260831041550 | 65 | 292 | 5.0 | 11.0 | 0.00 | 0.00 | 0.00 | 1016.9 | |
| 20260831041030 | 65 | 305 | 2.0 | 8.0 | 0.00 | 0.00 | 0.00 | 1017.0 | |
| 20260831040528 | 65 | 134 | 2.0 | 8.0 | 0.00 | 0.00 | 0.00 | 1017.1 | |
| 20260831040054 | 65 | 255 | 3.0 | 8.0 | 0.00 | 0.00 | 0.00 | 1017.1 | |
| 20260831035526 | 65 | 286 | 1.0 | 7.0 | 0.00 | 0.00 | 0.00 | 1017.1 | |
| 20260831035025 | 66 | 166 | 1.0 | 8.0 | 0.00 | 0.00 | 0.00 | 1017.0 | |
| 20260831034550 | 66 | 277 | 2.0 | 8.0 | 0.00 | 0.00 | 0.00 | 1017.0 | |
| 20260831034027 | 66 | 300 | 1.0 | 6.0 | 0.00 | 0.00 | 0.00 | 1017.1 | |
| 20260831033528 | 66 | 198 | 1.0 | 5.0 | 0.00 | 0.00 | 0.00 | 1017.1 | |
| 20260831033052 | 66 | 183 | 1.0 | 5.0 | 0.00 | 0.00 | 0.00 | 1017.1 | |
| 20260831032528 | 67 | 227 | 1.0 | 4.0 | 0.00 | 0.00 | 0.00 | 1017.1 | |
| 20260831032030 | 66 | 39 | 2.0 | 4.0 | 0.00 | 0.00 | 0.00 | 1017.0 | |
| 20260831031553 | 67 | 308 | 1.0 | 4.0 | 0.00 | 0.00 | 0.00 | 1017.1 | |
| 20260831031027 | 67 | 291 | 1.0 | 5.0 | 0.00 | 0.00 | 0.00 | 1017.1 | |
| 20260831030525 | 67 | 268 | 1.0 | 5.0 | 0.00 | 0.00 | 0.00 | 1017.2 | |
| 20260831030050 | 68 | 141 | 1.0 | 4.0 | 0.00 | 0.00 | 0.00 | 1017.0 | |
| 20260831025528 | 68 | 120 | 1.0 | 5.0 | 0.00 | 0.00 | 0.00 | 1017.1 | |
| 20260831025028 | 68 | 254 | 1.0 | 5.0 | 0.00 | 0.00 | 0.00 | 1017.0 | |
| 20260831024546 | 68 | 280 | 1.0 | 7.0 | 0.00 | 0.00 | 0.00 | 1017.2 | |
| 20260831024028 | 68 | 268 | 2.0 | 7.0 | 0.00 | 0.00 | 0.00 | 1017.3 | |
| 20260831023524 | 69 | 329 | 1.0 | 7.0 | 0.00 | 0.00 | 0.00 | 1017.4 | |
| 20260831023107 | 69 | 22 | 2.0 | 10.0 | 0.00 | 0.00 | 0.00 | 1017.4 | |
| 20260831022528 | 69 | 207 | 2.0 | 10.0 | 0.00 | 0.00 | 0.00 | 1017.4 | |
| 20260831022027 | 70 | 12 | 2.0 | 7.0 | 0.00 | 0.00 | 0.00 | 1017.4 | |
| 20260831021553 | 70 | 16 | 2.0 | 7.0 | 0.00 | 0.00 | 0.00 | 1017.5 | |
| 20260831021031 | 70 | 118 | 1.0 | 7.0 | 0.00 | 0.00 | 0.00 | 1017.4 | |
| 20260831020527 | 70 | 319 | 1.0 | 8.0 | 0.00 | 0.00 | 0.00 | 1017.5 | |
| 20260831020110 | 70 | 277 | 2.0 | 8.0 | 0.00 | 0.00 | 0.00 | 1017.5 | |
| 20260831015526 | 71 | 154 | 2.0 | 9.0 | 0.00 | 0.00 | 0.00 | 1017.5 | |
| 20260831015025 | 71 | 297 | 3.0 | 9.0 | 0.00 | 0.00 | 0.00 | 1017.5 | |
| 20260831014550 | 72 | 290 | 3.0 | 8.0 | 0.00 | 0.00 | 0.00 | 1017.4 | |
| 20260831014028 | 74 | 42 | 2.0 | 7.0 | 0.00 | 0.00 | 0.00 | 1017.7 | |
| 20260831013525 | 78 | 295 | 2.0 | 8.0 | 0.00 | 0.00 | 0.00 | 1017.6 | |
| 20260831013050 | 77 | 355 | 3.0 | 7.0 | 0.00 | 0.00 | 0.00 | 1017.6 | |
| 20260831012527 | 81 | 275 | 1.0 | 7.0 | 0.00 | 0.00 | 0.00 | 1017.6 | |
| 20260831012028 | 83 | 183 | 1.0 | 9.0 | 0.00 | 0.00 | 0.00 | 1017.5 | |
| 20260831011556 | 80 | 307 | 2.0 | 9.0 | 0.00 | 0.00 | 0.00 | 1017.8 | |
| 20260831011024 | 81 | 103 | 3.0 | 10.0 | 0.00 | 0.00 | 0.00 | 1017.7 | |
| 20260831010526 | 80 | 355 | 3.0 | 10.0 | 0.00 | 0.00 | 0.00 | 1017.7 | |
| 20260831010052 | 80 | 302 | 4.0 | 10.0 | 0.00 | 0.00 | 0.00 | 1017.8 | |
| 20260831005528 | 83 | 279 | 2.0 | 9.0 | 0.00 | 0.00 | 0.00 | 1017.9 | |
| 20260831005027 | 83 | 286 | 1.0 | 10.0 | 0.00 | 0.00 | 0.00 | 1017.8 | |
| 20260831004549 | 80 | 285 | 3.0 | 12.0 | 0.00 | 0.00 | 0.00 | 1017.9 | |
| 20260831004028 | 81 | 297 | 3.0 | 13.0 | 0.00 | 0.00 | 0.00 | 1017.9 | |
| 20260831003528 | 81 | 273 | 4.0 | 13.0 | 0.00 | 0.00 | 0.00 | 1018.0 | |
| 20260831003053 | 84 | 240 | 2.0 | 12.0 | 0.00 | 0.00 | 0.00 | 1018.0 | |
| 20260831002524 | 79 | 292 | 5.0 | 9.0 | 0.00 | 0.00 | 0.00 | 1018.1 | |
| 20260831002033 | 82 | 333 | 2.0 | 11.0 | 0.00 | 0.00 | 0.00 | 1018.1 | |
| 20260831001550 | 81 | 16 | 3.0 | 12.0 | 0.00 | 0.00 | 0.00 | 1018.1 | |
| 20260831001028 | 78 | 290 | 6.0 | 12.0 | 0.00 | 0.00 | 0.00 | 1018.1 | |
| 20260831000528 | 82 | 355 | 2.0 | 11.0 | 0.00 | 0.00 | 0.00 | 1018.2 | |
| 20260831000048 | 82 | 275 | 2.0 | 11.0 | 0.00 | 0.00 | 0.00 | 1018.1 | |
| 20260830235527 | 81 | 290 | 3.0 | 10.0 | 0.00 | 0.00 | 0.00 | 1018.1 | |
| 20260830235027 | 84 | 298 | 2.0 | 8.0 | 0.00 | 0.00 | 0.00 | 1018.1 | |
| 20260830234607 | 83 | 277 | 3.0 | 8.0 | 0.00 | 0.00 | 0.00 | 1018.3 | |
| 20260830234027 | 84 | 282 | 3.0 | 10.0 | 0.00 | 0.00 | 0.00 | 1018.3 | |
| 20260830233524 | 82 | 292 | 3.0 | 10.0 | 0.00 | 0.00 | 0.00 | 1018.5 | |
| 20260830233051 | 85 | 261 | 2.0 | 8.0 | 0.00 | 0.00 | 0.00 | 1018.5 | |
| 20260830232527 | 85 | 0 | 2.0 | 8.0 | 0.00 | 0.00 | 0.00 | 1018.5 | |
| 20260830232027 | 85 | 273 | 2.0 | 8.0 | 0.00 | 0.00 | 0.00 | 1018.5 | |
| 20260830231546 | 83 | 319 | 2.0 | 9.0 | 0.00 | 0.00 | 0.00 | 1018.7 | |
| 20260830231024 | 82 | 322 | 2.0 | 9.0 | 0.00 | 0.00 | 0.00 | 1018.7 | |
| 20260830230525 | 81 | 295 | 4.0 | 9.0 | 0.00 | 0.00 | 0.00 | 1018.7 | |
| 20260830230046 | 83 | 60 | 2.0 | 9.0 | 0.00 | 0.00 | 0.00 | 1018.7 | |
| 20260830225524 | 83 | 285 | 1.0 | 9.0 | 0.00 | 0.00 | 0.00 | 1019.0 | |
| 20260830225026 | 83 | 298 | 2.0 | 8.0 | 0.00 | 0.00 | 0.00 | 1019.1 | |
| 20260830224556 | 85 | 344 | 1.0 | 10.0 | 0.00 | 0.00 | 0.00 | 1019.0 | |
| 20260830224028 | 80 | 291 | 3.0 | 10.0 | 0.00 | 0.00 | 0.00 | 1019.2 | |
| 20260830223525 | 84 | 292 | 2.0 | 9.0 | 0.00 | 0.00 | 0.00 | 1019.3 | |
| 20260830223047 | 86 | 311 | 1.0 | 9.0 | 0.00 | 0.00 | 0.00 | 1019.4 | |
| 20260830222525 | 85 | 105 | 2.0 | 9.0 | 0.00 | 0.00 | 0.00 | 1019.5 | |
| 20260830222025 | 83 | 286 | 2.0 | 6.0 | 0.00 | 0.00 | 0.00 | 1019.6 | |
| 20260830221548 | 84 | 0 | 1.0 | 5.0 | 0.00 | 0.00 | 0.00 | 1019.6 | |
| 20260830221026 | 83 | 283 | 2.0 | 10.0 | 0.00 | 0.00 | 0.00 | 1019.9 | |
| 20260830220528 | 75 | 302 | 5.0 | 9.0 | 0.00 | 0.00 | 0.00 | 1020.0 | |
| 20260830220103 | 83 | 268 | 2.0 | 8.0 | 0.00 | 0.00 | 0.00 | 1019.9 | |
| 20260830215529 | 85 | 39 | 1.0 | 4.0 | 0.00 | 0.00 | 0.00 | 1019.9 | |
| 20260830215024 | 83 | 216 | 1.0 | 7.0 | 0.00 | 0.00 | 0.00 | 1020.0 | |
| 20260830214547 | 83 | 216 | 1.0 | 7.0 | 0.00 | 0.00 | 0.00 | 1020.1 | |
| 20260830214031 | 79 | 243 | 2.0 | 10.0 | 0.00 | 0.00 | 0.00 | 1020.2 | |
| 20260830213527 | 73 | 0 | 4.0 | 10.0 | 0.00 | 0.00 | 0.00 | 1020.2 | |
| 20260830213101 | 79 | 277 | 2.0 | 8.0 | 0.00 | 0.00 | 0.00 | 1020.3 | |
| 20260830212524 | 78 | 268 | 3.0 | 8.0 | 0.00 | 0.00 | 0.00 | 1020.4 | |
| 20260830212025 | 81 | 3 | 1.0 | 6.0 | 0.00 | 0.00 | 0.00 | 1020.5 | |
| 20260830211556 | 79 | 131 | 2.0 | 8.0 | 0.00 | 0.00 | 0.00 | 1020.5 | |
| 20260830211032 | 80 | 288 | 1.0 | 8.0 | 0.00 | 0.00 | 0.00 | 1020.4 | |
| 20260830210527 | 79 | 301 | 1.0 | 7.0 | 0.00 | 0.00 | 0.00 | 1020.5 | |
| 20260830210056 | 75 | 248 | 3.0 | 7.0 | 0.00 | 0.00 | 0.00 | 1020.5 | |
| 20260830205527 | 78 | 255 | 2.0 | 9.0 | 0.00 | 0.00 | 0.00 | 1020.6 | |
| 20260830205028 | 74 | 286 | 4.0 | 10.0 | 0.00 | 0.00 | 0.00 | 1020.7 | |
| 20260830204600 | 75 | 288 | 3.0 | 10.0 | 0.00 | 0.00 | 0.00 | 1020.7 | |
| 20260830204026 | 77 | 311 | 1.0 | 7.0 | 0.00 | 0.00 | 0.00 | 1020.8 | |
| 20260830203524 | 74 | 272 | 1.0 | 10.0 | 0.00 | 0.00 | 0.00 | 1020.8 | |
| 20260830203056 | 71 | 281 | 4.0 | 10.0 | 0.00 | 0.00 | 0.00 | 1020.9 | |
| 20260830202528 | 75 | 39 | 2.0 | 9.0 | 0.00 | 0.00 | 0.00 | 1021.0 | |
| 20260830202031 | 73 | 39 | 3.0 | 9.0 | 0.00 | 0.00 | 0.00 | 1021.0 | |
| 20260830201547 | 74 | 273 | 3.0 | 9.0 | 0.00 | 0.00 | 0.00 | 1020.8 | |
| 20260830201027 | 71 | 286 | 4.0 | 9.0 | 0.00 | 0.00 | 0.00 | 1021.1 | |
| 20260830200528 | 70 | 272 | 5.0 | 9.0 | 0.00 | 0.00 | 0.00 | 1021.0 | |
| 20260830200046 | 76 | 297 | 1.0 | 8.0 | 0.00 | 0.00 | 0.00 | 1021.0 | |
| 20260830195527 | 74 | 288 | 2.0 | 8.0 | 0.00 | 0.00 | 0.00 | 1021.2 | |
| 20260830195027 | 77 | 55 | 1.0 | 5.0 | 0.00 | 0.00 | 0.00 | 1021.1 | |
| 20260830194557 | 77 | 280 | 1.0 | 6.0 | 0.00 | 0.00 | 0.00 | 1021.1 | |
| 20260830194029 | 76 | 259 | 1.0 | 7.0 | 0.00 | 0.00 | 0.00 | 1021.4 | |
| 20260830193525 | 76 | 326 | 2.0 | 7.0 | 0.00 | 0.00 | 0.00 | 1021.3 | |
| 20260830193049 | 76 | 284 | 1.0 | 5.0 | 0.00 | 0.00 | 0.00 | 1021.3 | |
| 20260830192528 | 78 | 66 | 1.0 | 6.0 | 0.00 | 0.00 | 0.00 | 1021.5 | |
| 20260830192027 | 79 | 259 | 1.0 | 6.0 | 0.00 | 0.00 | 0.00 | 1021.5 | |
| 20260830191548 | 77 | 243 | 1.0 | 6.0 | 0.00 | 0.00 | 0.00 | 1021.5 | |
| 20260830191025 | 77 | 315 | 1.0 | 6.0 | 0.00 | 0.00 | 0.00 | 1021.6 | |
| 20260830190527 | 79 | 286 | 1.0 | 5.0 | 0.00 | 0.00 | 0.00 | 1021.6 | |
| 20260830190052 | 77 | 112 | 1.0 | 4.0 | 0.00 | 0.00 | 0.00 | 1021.6 | |
| 20260830185525 | 76 | 99 | 1.0 | 4.0 | 0.00 | 0.00 | 0.00 | 1021.7 | |
| 20260830185027 | 76 | 46 | 1.0 | 5.0 | 0.00 | 0.00 | 0.00 | 1021.8 | |
| 20260830184553 | 79 | 299 | 1.0 | 6.0 | 0.00 | 0.00 | 0.00 | 1021.7 | |
| 20260830184030 | 74 | 0 | 2.0 | 6.0 | 0.00 | 0.00 | 0.00 | 1021.8 | |
| 20260830183531 | 76 | 116 | 1.0 | 5.0 | 0.00 | 0.00 | 0.00 | 1021.8 | |
| 20260830183054 | 73 | 311 | 1.0 | 5.0 | 0.00 | 0.00 | 0.00 | 1021.9 | |
| 20260830182525 | 70 | 227 | 1.0 | 5.0 | 0.00 | 0.00 | 0.00 | 1021.9 | |
| 20260830182026 | 70 | 99 | 1.0 | 5.0 | 0.00 | 0.00 | 0.00 | 1021.8 | |
| 20260830181551 | 72 | 99 | 1.0 | 4.0 | 0.00 | 0.00 | 0.00 | 1021.7 | |
| 20260830181028 | 78 | 116 | 1.0 | 3.0 | 0.00 | 0.00 | 0.00 | 1021.8 | |
| 20260830180528 | 81 | 0 | 0.0 | 3.0 | 0.00 | 0.00 | 0.00 | 1021.7 | |
| 20260830180054 | 80 | 64 | 0.0 | 4.0 | 0.00 | 0.00 | 0.00 | 1021.9 | |
| 20260830175527 | 78 | 236 | 0.0 | 4.0 | 0.00 | 0.00 | 0.00 | 1021.7 | |
| 20260830175032 | 74 | 158 | 1.0 | 4.0 | 0.00 | 0.00 | 0.00 | 1021.8 | |
| 20260830174600 | 76 | 118 | 1.0 | 4.0 | 0.00 | 0.00 | 0.00 | 1021.7 | |
| 20260830174031 | 75 | 0 | 1.0 | 4.0 | 0.00 | 0.00 | 0.00 | 1021.8 | |
| 20260830173529 | 76 | 22 | 1.0 | 4.0 | 0.00 | 0.00 | 0.00 | 1021.8 | |
| 20260830173051 | 75 | 0 | 1.0 | 5.0 | 0.00 | 0.00 | 0.00 | 1021.9 | |
| 20260830172527 | 75 | 99 | 1.0 | 4.0 | 0.00 | 0.00 | 0.00 | 1022.0 | |
| 20260830171551 | 75 | 243 | 0.0 | 4.0 | 0.00 | 0.00 | 0.00 | 1021.8 | |
| 20260830171029 | 72 | 355 | 1.0 | 4.0 | 0.00 | 0.00 | 0.00 | 1022.0 | |
| 20260830170528 | 70 | 0 | 0.0 | 4.0 | 0.00 | 0.00 | 0.00 | 1022.0 | |
| 20260830170048 | 69 | 286 | 1.0 | 4.0 | 0.00 | 0.00 | 0.00 | 1021.9 | |
| 20260830165533 | 65 | 39 | 1.0 | 4.0 | 0.00 | 0.00 | 0.00 | 1021.9 | |
| 20260830165028 | 61 | 283 | 1.0 | 3.0 | 0.00 | 0.00 | 0.00 | 1021.9 | |
| 20260830164553 | 62 | 280 | 0.0 | 4.0 | 0.00 | 0.00 | 0.00 | 1021.9 | |
| 20260830164032 | 63 | 299 | 1.0 | 4.0 | 0.00 | 0.00 | 0.00 | 1021.8 | |
| 20260830163751 | 67 | 295 | 1.0 | 3.0 | 0.00 | 0.00 | 0.00 | 1022.0 | |
| 20260830163051 | 69 | 319 | 1.0 | 3.0 | 0.00 | 0.00 | 0.00 | 1021.9 | |
| 20260830162524 | 69 | 243 | 0.0 | 4.0 | 0.00 | 0.00 | 0.00 | 1022.1 | |
| 20260830162023 | 67 | 141 | 1.0 | 4.0 | 0.00 | 0.00 | 0.00 | 1022.1 | |
| 20260830161604 | 68 | 356 | 1.0 | 4.0 | 0.00 | 0.00 | 0.00 | 1022.2 | |
| 20260830161025 | 66 | 259 | 2.0 | 4.0 | 0.00 | 0.00 | 0.00 | 1022.1 | |
| 20260830160528 | 64 | 299 | 2.0 | 5.0 | 0.00 | 0.00 | 0.00 | 1022.1 | |
| 20260830160056 | 64 | 239 | 2.0 | 5.0 | 0.00 | 0.00 | 0.00 | 1022.0 | |
| 20260830155529 | 63 | 0 | 2.0 | 5.0 | 0.00 | 0.00 | 0.00 | 1022.2 | |
| 20260830155026 | 63 | 285 | 1.0 | 4.0 | 0.00 | 0.00 | 0.00 | 1022.1 | |
| 20260830154552 | 63 | 0 | 1.0 | 5.0 | 0.00 | 0.00 | 0.00 | 1022.2 | |
| 20260830154046 | 63 | 311 | 2.0 | 5.0 | 0.00 | 0.00 | 0.00 | 1022.0 | |
| 20260830153526 | 60 | 329 | 2.0 | 5.0 | 0.00 | 0.00 | 0.00 | 1022.2 | |
| 20260830153059 | 57 | 286 | 2.0 | 3.0 | 0.00 | 0.00 | 0.00 | 1022.2 | |
| 20260830152527 | 57 | 297 | 1.0 | 4.0 | 0.00 | 0.00 | 0.00 | 1022.1 | |
| 20260830152026 | 57 | 283 | 1.0 | 4.0 | 0.00 | 0.00 | 0.00 | 1022.2 | |
| 20260830151554 | 57 | 99 | 1.0 | 4.0 | 0.00 | 0.00 | 0.00 | 1022.3 | |
| 20260830151025 | 56 | 311 | 1.0 | 4.0 | 0.00 | 0.00 | 0.00 | 1022.2 | |
| 20260830150526 | 56 | 291 | 1.0 | 4.0 | 0.00 | 0.00 | 0.00 | 1022.3 | |
| 20260830150049 | 56 | 311 | 1.0 | 2.0 | 0.00 | 0.00 | 0.00 | 1022.1 | |
| 20260830145528 | 56 | 299 | 0.0 | 2.0 | 0.00 | 0.00 | 0.00 | 1022.1 | |
| 20260830145025 | 55 | 0 | 0.0 | 2.0 | 0.00 | 0.00 | 0.00 | 1022.2 | |
| 20260830144545 | 54 | 234 | 1.0 | 3.0 | 0.00 | 0.00 | 0.00 | 1022.2 | |
| 20260830144025 | 53 | 276 | 1.0 | 3.0 | 0.00 | 0.00 | 0.00 | 1022.3 | |
| 20260830143527 | 52 | 243 | 1.0 | 3.0 | 0.00 | 0.00 | 0.00 | 1022.2 | |
| 20260830143103 | 52 | 213 | 1.0 | 4.0 | 0.00 | 0.00 | 0.00 | 1022.4 | |
| 20260830142524 | 52 | 239 | 2.0 | 4.0 | 0.00 | 0.00 | 0.00 | 1022.2 | |
| 20260830142025 | 53 | 261 | 1.0 | 4.0 | 0.00 | 0.00 | 0.00 | 1022.2 | |
| 20260830141545 | 53 | 247 | 1.0 | 3.0 | 0.00 | 0.00 | 0.00 | 1022.2 | |
| 20260830141024 | 54 | 0 | 0.0 | 2.0 | 0.00 | 0.00 | 0.00 | 1022.3 | |
| 20260830140524 | 54 | 0 | 0.0 | 2.0 | 0.00 | 0.00 | 0.00 | 1022.1 | |
| 20260830140047 | 53 | 227 | 0.0 | 2.0 | 0.00 | 0.00 | 0.00 | 1022.1 | |
| 20260830135531 | 53 | 227 | 0.0 | 2.0 | 0.00 | 0.00 | 0.00 | 1021.9 | |
| 20260830135027 | 53 | 0 | 0.0 | 2.0 | 0.00 | 0.00 | 0.00 | 1022.0 | |
| 20260830134553 | 53 | 162 | 0.0 | 4.0 | 0.00 | 0.00 | 0.00 | 1022.0 | |
| 20260830134025 | 53 | 0 | 1.0 | 5.0 | 0.00 | 0.00 | 0.00 | 1021.9 | |
| 20260830133526 | 53 | 261 | 2.0 | 5.0 | 0.00 | 0.00 | 0.00 | 1022.0 | |
| 20260830133053 | 53 | 284 | 3.0 | 5.0 | 0.00 | 0.00 | 0.00 | 1021.9 | |
| 20260830132524 | 53 | 288 | 2.0 | 4.0 | 0.00 | 0.00 | 0.00 | 1022.0 | |
| 20260830132024 | 53 | 292 | 2.0 | 4.0 | 0.00 | 0.00 | 0.00 | 1021.9 | |
| 20260830131546 | 53 | 311 | 1.0 | 3.0 | 0.00 | 0.00 | 0.00 | 1022.0 | |
| 20260830131025 | 54 | 22 | 0.0 | 5.0 | 0.00 | 0.00 | 0.00 | 1021.9 | |
| 20260830130525 | 54 | 291 | 1.0 | 7.0 | 0.00 | 0.00 | 0.00 | 1021.9 | |
| 20260830130104 | 53 | 284 | 3.0 | 7.0 | 0.00 | 0.00 | 0.00 | 1021.8 | |
| 20260830125528 | 53 | 293 | 4.0 | 7.0 | 0.00 | 0.00 | 0.00 | 1021.8 | |
| 20260830125025 | 53 | 288 | 2.0 | 4.0 | 0.00 | 0.00 | 0.00 | 1021.9 | |
| 20260830124550 | 52 | 293 | 2.0 | 4.0 | 0.00 | 0.00 | 0.00 | 1021.8 | |
| 20260830124028 | 53 | 288 | 1.0 | 4.0 | 0.00 | 0.00 | 0.00 | 1021.7 | |
| 20260830123530 | 53 | 252 | 0.0 | 8.0 | 0.00 | 0.00 | 0.00 | 1021.7 | |
| 20260830123052 | 54 | 0 | 3.0 | 8.0 | 0.00 | 0.00 | 0.00 | 1021.6 | |
| 20260830122531 | 53 | 286 | 3.0 | 8.0 | 0.00 | 0.00 | 0.00 | 1021.8 |